Starlink 32278

operational
NORAD ID: 60356 Int'l Des: 2024-138 Owner: SPXS Country: US Constellation: starlink
LEOCIRCULAR

Starlink 32278について

説明を読み込み中...

リアルタイム位置

3D地球を読み込み中...

次回通過

高度履歴

Altitude vs Time

uPlot chart will show altitude changes over time

軌道要素

1 60356U 24138B 25308.35614757 .00000011 00000-0 12507-4 0 9995
2 60356 53.1593 172.1000 0001401 95.4285 264.6876 15.30194355 71438
Epoch: Nov 4, 2025 • Age: 10 hours

現在のステータス

高度 478.5 km
速度 7.63 km/s
衛星直下点 42.64°N, 14.67°W
打ち上げ日 Aug 4, 2024
運用期間 1.2 years
タイプ internet

技術仕様

分類 Payload
質量 730.00 kg
乾燥質量 700.00 kg
総質量 730.00 kg
長さ 0.30 m
直径 4.10 m
スパン 29.00 m
形状 Box + pan
製造者 SPXS
バスタイプ Starlink V2M
フェーズステータス In Orbit
所有者/国 SPXS/US

大規模コンステレーション

Loading constellations...